FW0801 Weather Reports


Display with metric or nautical units.
time (UTC)temp
F
wind
direction
speed
MPH
gust
MPH
rain 1hr
in
rain 24hr
in
rain mn
in
humidity
%
barometer
mb
20260507111839 65 315 2.0 3.0 0.00 0.67 0.00 84 1013.7
20260507111739 65 292 3.0 4.0 0.00 0.67 0.00 82 1013.6
20260507111639 65 292 2.0 4.0 0.00 0.67 0.00 82 1013.6
20260507111540 65 315 2.0 2.0 0.00 0.67 0.00 83 1013.6
20260507111439 66 292 1.0 2.0 0.00 0.67 0.00 84 1013.6
20260507111140 66 248 4.0 6.0 0.00 0.67 0.00 83 1013.6
20260507110739 66 270 2.0 3.0 0.00 0.67 0.00 81 1013.5
20260507110540 66 315 3.0 4.0 0.00 0.67 0.00 83 1013.6
20260507110440 66 270 2.0 4.0 0.00 0.67 0.00 82 1013.6
20260507110339 66 248 3.0 4.0 0.00 0.67 0.00 82 1013.6
20260507110239 67 270 1.0 2.0 0.00 0.67 0.00 84 1013.6
20260507110140 66 270 1.0 2.0 0.00 0.67 0.00 82 1013.6
20260507110040 66 270 2.0 2.0 0.00 0.67 0.00 80 1013.7
20260507105840 65 270 2.0 2.0 0.00 0.67 0.00 80 1013.8
20260507105640 65 270 3.0 4.0 0.00 0.67 0.00 81 1013.8
20260507105439 66 270 4.0 6.0 0.00 0.67 0.00 81 1013.5
20260507105239 65 292 3.0 4.0 0.00 0.67 0.00 82 1013.7
20260507105139 66 270 4.0 6.0 0.00 0.67 0.00 82 1013.6
20260507104939 65 270 2.0 4.0 0.00 0.67 0.00 86 1013.7
20260507104840 65 292 2.0 2.0 0.00 0.67 0.00 85 1013.8
20260507104440 64 292 3.0 4.0 0.00 0.67 0.00 81 1013.8
20260507104340 64 292 2.0 3.0 0.00 0.67 0.00 84 1013.7
20260507103839 65 292 3.0 4.0 0.00 0.68 0.00 85 1013.6
20260507103739 65 315 2.0 4.0 0.00 0.70 0.00 85 1013.7
20260507103540 65 270 4.0 5.0 0.00 0.70 0.00 81 1013.8
20260507103440 65 292 2.0 3.0 0.00 0.70 0.00 82 1013.7
20260507103140 65 248 3.0 5.0 0.00 0.72 0.00 82 1014.0
20260507103040 65 292 2.0 4.0 0.00 0.73 0.00 85 1013.7
20260507102939 65 292 3.0 4.0 0.00 0.73 0.00 83 1013.9
20260507102844 64 292 4.0 5.0 0.00 0.73 0.00 84 1014.0
20260507102640 64 270 2.0 2.0 0.00 0.73 0.00 87 1013.8
20260507102540 64 292 2.0 4.0 0.00 0.73 0.00 87 1014.0
20260507102040 64 292 3.0 4.0 0.00 0.73 0.00 89 1014.0
20260507101940 64 315 2.0 3.0 0.00 0.73 0.00 88 1014.0
20260507101740 64 315 2.0 3.0 0.00 0.73 0.00 89 1014.1
20260507101640 64 315 3.0 4.0 0.00 0.73 0.00 89 1014.1
20260507101539 63 292 4.0 4.0 0.00 0.73 0.00 88 1013.8
20260507101339 63 315 2.0 3.0 0.00 0.73 0.00 88 1014.0
20260507101239 63 315 2.0 2.0 0.00 0.73 0.00 87 1014.1
20260507100940 63 22 1.0 1.0 0.00 0.73 0.00 85 1013.9
20260507100839 63 0 1.0 1.0 0.00 0.73 0.00 86 1014.0
20260507100739 63 315 1.0 1.0 0.00 0.73 0.00 86 1014.0
20260507100640 63 338 1.0 2.0 0.00 0.73 0.00 85 1014.0
20260507100540 63 315 2.0 2.0 0.00 0.73 0.00 84 1014.2
20260507100441 63 292 2.0 2.0 0.00 0.73 0.00 85 1014.2
20260507100340 63 315 2.0 2.0 0.00 0.73 0.00 87 1014.0
20260507095940 63 315 2.0 2.0 0.00 0.73 0.00 85 1014.0
20260507095440 63 248 1.0 3.0 0.00 0.73 0.00 86 1014.1
20260507095240 62 315 1.0 2.0 0.00 0.73 0.00 86 1014.1
20260507095139 62 315 2.0 2.0 0.00 0.74 0.00 87 1014.3
20260507094839 62 315 1.0 1.0 0.00 0.74 0.00 89 1014.3
20260507094740 62 45 1.0 1.0 0.00 0.74 0.00 89 1014.3
20260507094640 61 45 2.0 2.0 0.00 0.74 0.00 90 1014.2
20260507094540 61 45 1.0 2.0 0.00 0.74 0.00 92 1014.2
20260507094339 61 45 1.0 2.0 0.00 0.74 0.00 90 1014.1
20260507094240 61 45 1.0 2.0 0.00 0.75 0.00 91 1014.1
20260507093640 61 45 2.0 3.0 0.00 0.76 0.00 91 1014.3
20260507093440 61 68 2.0 2.0 0.00 0.76 0.00 90 1014.3
20260507093239 61 68 2.0 3.0 0.00 0.76 0.00 90 1014.2
20260507092940 61 68 2.0 3.0 0.00 0.76 0.00 90 1014.2
20260507092840 60 90 2.0 3.0 0.00 0.76 0.00 90 1014.5
20260507092739 61 68 2.0 3.0 0.00 0.76 0.00 90 1014.1
20260507092639 60 90 2.0 3.0 0.00 0.76 0.00 89 1014.4
20260507092440 60 90 2.0 3.0 0.00 0.76 0.00 88 1014.3
20260507092340 60 68 2.0 3.0 0.00 0.76 0.00 88 1014.3
20260507092239 60 68 2.0 3.0 0.00 0.76 0.00 90 1014.4
20260507092139 60 90 2.0 3.0 0.00 0.76 0.00 89 1014.3
20260507091640 60 68 3.0 4.0 0.00 0.76 0.00 90 1014.1
20260507091440 60 90 3.0 4.0 0.00 0.76 0.00 90 1014.3
20260507091139 60 90 3.0 3.0 0.00 0.76 0.00 90 1014.3
20260507091040 60 68 3.0 3.0 0.00 0.76 0.00 90 1014.3
20260507090939 60 90 3.0 4.0 0.00 0.76 0.00 89 1014.4
20260507090740 60 68 3.0 3.0 0.00 0.76 0.00 91 1014.4
20260507090440 60 90 3.0 3.0 0.00 0.76 0.00 89 1014.3
20260507090339 60 68 3.0 3.0 0.00 0.76 0.00 91 1014.4
20260507090239 60 68 2.0 3.0 0.00 0.76 0.00 91 1014.3
20260507090040 60 90 2.0 3.0 0.00 0.76 0.00 91 1014.6
20260507085740 60 68 2.0 3.0 0.00 0.76 0.00 93 1014.5
20260507085640 60 68 3.0 3.0 0.00 0.76 0.00 91 1014.4
20260507085540 60 68 3.0 3.0 0.00 0.76 0.00 91 1014.4
20260507085240 60 68 4.0 4.0 0.00 0.76 0.00 92 1014.2
20260507085040 60 68 3.0 4.0 0.00 0.76 0.00 93 1014.4
20260507084939 60 68 3.0 4.0 0.00 0.76 0.00 92 1014.4
20260507084839 60 68 3.0 4.0 0.00 0.76 0.00 93 1014.2
20260507084740 60 68 3.0 4.0 0.00 0.76 0.00 91 1014.5
20260507084640 60 68 3.0 4.0 0.00 0.76 0.00 91 1014.3
20260507084540 60 68 3.0 4.0 0.00 0.76 0.00 89 1014.4
20260507084440 60 68 3.0 3.0 0.00 0.76 0.00 91 1014.2
20260507084339 60 68 3.0 3.0 0.00 0.76 0.00 90 1014.3
20260507084140 60 68 3.0 4.0 0.00 0.76 0.00 93 1014.4
20260507084040 60 90 3.0 4.0 0.00 0.76 0.00 94 1014.3
20260507083940 60 68 4.0 4.0 0.00 0.76 0.00 91 1014.4
20260507083839 60 68 4.0 4.0 0.00 0.76 0.00 89 1014.4
20260507083739 60 68 4.0 4.0 0.00 0.76 0.00 90 1014.5
20260507083640 60 68 4.0 4.0 0.00 0.76 0.00 90 1014.5
20260507083439 60 68 4.0 4.0 0.00 0.76 0.00 92 1014.4
20260507083140 60 68 4.0 4.0 0.00 0.76 0.00 92 1014.4
20260507083040 60 68 4.0 4.0 0.00 0.76 0.00 92 1014.4
20260507082940 60 68 4.0 4.0 0.00 0.76 0.00 91 1014.3
20260507082640 59 68 4.0 4.0 0.00 0.76 0.00 92 1014.5
20260507082439 59 90 4.0 4.0 0.00 0.76 0.00 93 1014.3
20260507082140 59 68 4.0 4.0 0.00 0.76 0.00 93 1014.4
20260507081840 59 68 4.0 6.0 0.00 0.77 0.00 93 1014.4
20260507081739 59 68 5.0 6.0 0.00 0.77 0.00 92 1014.4
20260507081439 59 90 4.0 5.0 0.00 0.77 0.00 91 1014.1
20260507081040 59 90 4.0 4.0 0.00 0.77 0.00 92 1014.3
20260507080940 59 90 4.0 5.0 0.00 0.77 0.00 92 1014.1
20260507080440 59 90 4.0 5.0 0.00 0.77 0.00 91 1014.3
20260507080239 58 90 5.0 6.0 0.00 0.77 0.00 92 1014.2
20260507080139 58 90 4.0 5.0 0.00 0.77 0.00 94 1014.2
20260507075339 59 68 5.0 6.0 0.00 0.77 0.00 94 1014.4
20260507075140 59 90 4.0 6.0 0.00 0.77 0.00 94 1014.3
20260507075040 59 68 4.0 6.0 0.00 0.77 0.00 93 1014.2
20260507074939 59 90 5.0 6.0 0.00 0.77 0.00 93 1014.1
20260507074839 58 90 6.0 6.0 0.00 0.77 0.00 91 1014.1
20260507074639 58 90 5.0 6.0 0.00 0.77 0.00 92 1014.1
20260507074539 58 68 6.0 6.0 0.00 0.77 0.00 93 1014.1
20260507073940 59 90 4.0 4.0 0.00 0.77 0.00 94 1014.2
20260507073839 58 90 4.0 4.0 0.00 0.77 0.00 93 1014.1
20260507073640 58 90 5.0 7.0 0.00 0.79 0.00 94 1014.1
20260507073540 58 90 4.0 4.0 0.00 0.79 0.00 95 1014.1
20260507073440 58 90 4.0 5.0 0.00 0.79 0.00 94 1014.1
20260507073339 58 90 5.0 6.0 0.00 0.80 0.00 95 1014.2
20260507073239 58 90 5.0 6.0 0.00 0.80 0.00 94 1014.3
20260507072639 58 90 6.0 7.0 0.00 0.80 0.00 95 1014.3
20260507072539 58 68 6.0 7.0 0.00 0.80 0.00 94 1014.1
20260507072439 58 90 5.0 6.0 0.00 0.80 0.00 95 1014.2
20260507072339 58 90 5.0 6.0 0.00 0.80 0.00 94 1014.3
20260507072140 58 68 6.0 7.0 0.00 0.80 0.00 95 1014.1
20260507071939 58 90 6.0 6.0 0.00 0.80 0.00 95 1014.2
20260507071839 58 68 7.0 7.0 0.00 0.80 0.00 94 1014.3
20260507071640 58 68 7.0 7.0 0.00 0.80 0.00 94 1014.1
20260507071440 58 68 7.0 8.0 0.00 0.81 0.00 95 1014.1
20260507070939 58 90 7.0 9.0 0.00 0.81 0.00 94 1013.9
20260507070540 58 90 6.0 8.0 0.00 0.81 0.00 96 1013.8
20260507070240 57 90 7.0 9.0 0.00 0.81 0.00 95 1013.9
20260507070140 57 90 7.0 9.0 0.00 0.82 0.00 95 1013.8
20260507065839 57 90 8.0 9.0 0.00 0.82 0.00 95 1014.0
20260507065739 57 90 8.0 9.0 0.00 0.82 0.00 95 1014.1
20260507065539 57 90 7.0 8.0 0.00 0.82 0.00 96 1014.0
20260507064740 57 112 7.0 7.0 0.00 0.82 0.00 95 1013.8
20260507064640 57 90 7.0 8.0 0.00 0.82 0.00 95 1014.0
20260507064239 57 90 6.0 9.0 0.00 0.82 0.00 95 1013.9
20260507064140 57 68 7.0 9.0 0.00 0.82 0.00 94 1014.0
20260507064040 57 90 7.0 9.0 0.00 0.82 0.00 96 1013.9
20260507063940 57 90 7.0 8.0 0.00 0.82 0.00 95 1013.9
20260507063740 57 112 9.0 10.0 0.00 0.82 0.00 95 1013.8
20260507063339 57 90 8.0 9.0 0.00 0.82 0.00 96 1013.8
20260507063140 57 90 8.0 10.0 0.00 0.82 0.00 96 1013.7
20260507062540 57 68 8.0 9.0 0.00 0.83 0.00 96 1013.6
20260507062340 57 68 9.0 11.0 0.00 0.83 0.00 96 1013.7
20260507062039 57 90 8.0 10.0 0.00 0.83 0.00 96 1013.6
20260507061740 57 90 8.0 11.0 0.00 0.83 0.00 96 1013.9
20260507061640 57 90 7.0 9.0 0.00 0.83 0.00 97 1013.7
20260507061540 57 68 7.0 9.0 0.00 0.83 0.00 96 1013.8
20260507061439 56 90 8.0 11.0 0.00 0.83 0.00 96 1013.8
20260507061339 57 90 7.0 7.0 0.00 0.83 0.00 97 1013.6
20260507060740 57 90 8.0 9.0 0.00 0.83 0.00 96 1013.7
20260507060639 57 90 8.0 9.0 0.00 0.83 0.00 96 1013.9
20260507060540 57 90 7.0 9.0 0.00 0.83 0.00 96 1013.7
20260507060440 57 90 7.0 7.0 0.00 0.83 0.00 96 1013.6
20260507060340 57 68 8.0 9.0 0.00 0.83 0.00 96 1013.8
20260507060139 57 90 7.0 9.0 0.00 0.83 0.00 96 1013.7
20260507055640 57 90 7.0 8.0 0.00 0.83 0.00 96 1013.6
20260507055340 57 68 7.0 8.0 0.00 0.83 0.00 96 1013.9
20260507055040 57 90 7.0 9.0 0.00 0.85 0.00 96 1013.8
20260507054640 57 90 6.0 7.0 0.00 0.87 0.00 96 1013.6
20260507054440 56 90 7.0 9.0 0.00 0.88 0.00 96 1013.6
20260507054340 57 90 7.0 10.0 0.00 0.89 0.00 96 1013.5
20260507054140 57 90 7.0 7.0 0.00 0.89 0.00 96 1013.6
20260507053940 56 90 10.0 12.0 0.00 0.89 0.00 96 1013.7
20260507053740 57 90 7.0 9.0 0.00 0.89 0.00 96 1013.3
20260507053639 57 90 7.0 9.0 0.00 0.90 0.00 96 1013.5
20260507053539 57 90 9.0 11.0 0.00 0.90 0.00 96 1013.5
20260507053240 56 90 8.0 10.0 0.00 0.93 0.00 96 1013.3
20260507052939 56 112 7.0 10.0 0.00 0.94 0.00 97 1013.3
20260507052839 57 112 9.0 10.0 0.00 0.94 0.00 97 1013.3
20260507052639 57 68 9.0 11.0 0.00 0.94 0.00 96 1013.5
20260507052540 57 90 8.0 9.0 0.00 0.94 0.00 97 1013.1
20260507052440 57 90 7.0 8.0 0.00 0.94 0.00 97 1013.2
20260507052240 57 90 7.0 9.0 0.00 0.94 0.00 97 1013.2
20260507051739 56 90 7.0 10.0 0.00 0.94 0.00 96 1012.9
20260507051640 56 90 7.0 9.0 0.00 0.95 0.00 96 1013.0
20260507051140 56 90 9.0 11.0 0.00 0.96 0.00 97 1013.0
20260507051039 57 90 7.0 9.0 0.00 0.96 0.00 96 1013.1
20260507050840 57 90 9.0 11.0 0.00 0.96 0.00 96 1013.0
20260507050540 56 90 8.0 11.0 0.00 0.96 0.00 97 1013.1
20260507050440 56 112 7.0 8.0 0.00 0.96 0.00 96 1012.9
20260507050240 56 90 8.0 10.0 0.00 0.96 0.00 96 1013.0
20260507050139 56 90 7.0 9.0 0.00 0.96 0.00 97 1012.8
20260507050039 56 112 7.0 9.0 0.00 0.96 0.00 97 1013.1
20260507045740 56 90 7.0 9.0 0.00 0.96 0.00 96 1012.9
20260507045639 56 90 7.0 10.0 0.00 0.96 0.00 96 1013.0
20260507045449 56 90 8.0 10.0 0.00 0.96 0.00 97 1013.0
20260507045339 56 112 8.0 9.0 0.00 0.98 0.00 97 1012.7
20260507044739 57 90 9.0 10.0 0.00 1.00 0.00 97 1012.8
20260507044540 56 112 8.0 9.0 0.00 1.00 0.00 97 1013.0
20260507044340 56 90 6.0 7.0 0.00 1.01 0.00 97 1012.9
20260507043939 56 90 9.0 11.0 0.00 1.02 0.00 97 1012.9
20260507043840 56 90 8.0 9.0 0.00 1.02 0.00 97 1012.7
20260507043540 56 90 8.0 9.0 0.00 1.02 0.00 97 1012.8
20260507043340 56 90 7.0 9.0 0.00 1.02 0.00 96 1012.8
20260507042040 56 90 7.0 8.0 0.00 1.03 0.00 97 1012.6
20260507041740 56 90 7.0 9.0 0.00 1.05 0.00 97 1012.6
20260507041539 56 90 8.0 9.0 0.00 1.05 0.00 97 1012.7
20260507041439 56 90 8.0 10.0 0.00 1.05 0.00 97 1012.7
20260507040940 56 90 9.0 11.0 0.00 1.06 0.00 97 1012.7
20260507040839 56 112 7.0 8.0 0.00 1.06 0.00 97 1012.6
20260507040740 56 112 7.0 8.0 0.00 1.06 0.00 97 1012.7
20260507040540 56 90 9.0 11.0 0.00 1.06 0.00 97 1012.7
20260507040140 56 90 9.0 11.0 0.00 1.07 0.00 97 1012.5
20260507035939 57 90 7.0 9.0 0.00 1.07 0.00 98 1012.6
20260507035839 56 90 9.0 9.0 0.00 1.07 0.00 98 1012.6
20260507035641 56 90 9.0 10.0 0.00 1.07 0.00 97 1012.5
20260507035539 56 90 9.0 10.0 0.00 1.07 0.00 97 1012.7
20260507035439 56 90 9.0 10.0 0.00 1.07 0.00 97 1012.6
20260507035340 56 90 8.0 10.0 0.00 1.07 0.00 97 1012.5
20260507035240 56 90 8.0 9.0 0.00 1.07 0.00 98 1012.7
20260507035140 56 68 9.0 11.0 0.00 1.07 0.00 97 1012.5
20260507034740 56 90 7.0 8.0 0.00 1.07 0.00 98 1012.8
20260507034539 56 90 7.0 9.0 0.00 1.07 0.00 98 1012.3
20260507034040 56 90 8.0 9.0 0.00 1.07 0.00 98 1012.4
20260507033840 56 90 8.0 10.0 0.00 1.07 0.00 98 1012.7
20260507033439 56 90 8.0 9.0 0.00 1.07 0.00 98 1012.6
20260507032839 56 90 8.0 9.0 0.00 1.07 0.00 97 1012.6
20260507032740 56 90 7.0 9.0 0.00 1.07 0.00 97 1012.7
20260507032639 56 90 9.0 10.0 0.00 1.07 0.00 97 1012.7
20260507032539 56 90 8.0 9.0 0.00 1.07 0.00 98 1012.8
20260507032240 56 90 8.0 9.0 0.00 1.07 0.00 98 1012.8
20260507032040 56 90 8.0 9.0 0.00 1.07 0.00 98 1012.7
20260507031940 56 68 8.0 10.0 0.00 1.07 0.00 97 1012.9
20260507031740 56 90 8.0 10.0 0.00 1.07 0.00 97 1012.6
20260507031639 56 68 9.0 10.0 0.00 1.07 0.00 97 1012.7
20260507031339 56 90 9.0 10.0 0.00 1.07 0.00 97 1012.6
20260507030940 56 68 7.0 8.0 0.00 1.07 0.00 98 1012.8
20260507030839 56 90 9.0 11.0 0.00 1.07 0.00 97 1012.6
20260507030739 56 90 7.0 7.0 0.00 1.07 0.00 98 1012.7
20260507030440 56 90 7.0 10.0 0.00 1.07 0.00 97 1012.9
20260507030239 56 68 7.0 8.0 0.00 1.07 0.00 97 1012.6
20260507025539 56 90 7.0 8.0 0.00 1.07 0.00 97 1012.6
20260507025440 56 90 7.0 7.0 0.00 1.07 0.00 97 1012.7
20260507025239 56 90 7.0 8.0 0.00 1.07 0.00 97 1012.8
20260507025139 56 90 7.0 9.0 0.00 1.07 0.00 97 1012.7
20260507024939 56 90 7.0 9.0 0.00 1.07 0.00 97 1012.8
20260507024740 56 90 7.0 8.0 0.00 1.07 0.00 97 1012.5
20260507024640 56 90 6.0 7.0 0.00 1.07 0.00 98 1012.5
20260507024539 56 68 7.0 7.0 0.00 1.07 0.00 97 1012.6
20260507023840 56 90 7.0 7.0 0.00 1.07 0.00 98 1012.7
20260507023339 56 90 6.0 7.0 0.00 1.07 0.00 99 1012.4
20260507023240 56 90 5.0 6.0 0.00 1.07 0.00 98 1012.5
20260507023140 56 90 5.0 6.0 0.00 1.07 0.00 98 1012.5
20260507022640 56 90 5.0 6.0 0.00 1.07 0.00 98 1012.6
20260507022239 55 90 5.0 6.0 0.00 1.07 0.00 99 1012.5
20260507022139 56 90 5.0 6.0 0.00 1.07 0.00 98 1012.5
20260507021939 55 90 4.0 5.0 0.00 1.07 0.00 98 1012.6
20260507021740 55 90 5.0 6.0 0.00 1.07 0.00 98 1012.4
20260507021540 55 90 4.0 6.0 0.00 1.07 0.00 99 1012.5
20260507021440 55 90 4.0 6.0 0.00 1.07 0.00 98 1012.4
20260507021140 56 90 6.0 7.0 0.00 1.07 0.00 99 1012.4
20260507020940 55 90 6.0 7.0 0.00 1.07 0.00 99 1012.7
20260507020639 56 112 7.0 8.0 0.00 1.07 0.00 98 1012.4
20260507020539 56 112 7.0 8.0 0.00 1.07 0.00 98 1012.5
20260507020440 56 68 6.0 7.0 0.00 1.07 0.00 97 1012.5
20260507020340 56 90 7.0 8.0 0.00 1.07 0.00 97 1012.6
20260507020240 56 90 7.0 8.0 0.00 1.07 0.00 98 1012.4
20260507020140 56 90 7.0 8.0 0.00 1.07 0.00 98 1012.2
20260507020039 56 90 7.0 9.0 0.00 1.07 0.00 97 1012.1
20260507015939 56 90 7.0 8.0 0.00 1.07 0.00 98 1012.2
20260507015840 56 90 8.0 9.0 0.00 1.07 0.00 97 1012.3
20260507015741 56 68 7.0 9.0 0.00 1.07 0.00 98 1012.3
20260507015640 56 90 8.0 9.0 0.00 1.07 0.00 97 1012.3
20260507015540 56 90 7.0 9.0 0.00 1.07 0.00 98 1012.3
20260507015340 56 112 9.0 10.0 0.00 1.07 0.00 98 1012.3
20260507015240 56 90 9.0 11.0 0.00 1.07 0.00 98 1012.2
20260507014939 56 90 9.0 12.0 0.00 1.07 0.00 97 1012.0
20260507014640 56 90 8.0 9.0 0.00 1.07 0.00 98 1012.0
20260507014339 56 90 8.0 9.0 0.00 1.07 0.00 98 1012.3
20260507014239 56 90 8.0 9.0 0.00 1.07 0.00 98 1012.2
20260507013839 56 90 9.0 10.0 0.00 1.07 0.00 98 1012.0
20260507013539 56 90 9.0 11.0 0.00 1.07 0.00 98 1012.0
20260507013340 56 90 8.0 9.0 0.00 1.07 0.00 99 1012.2
20260507012639 56 90 8.0 11.0 0.00 1.07 0.00 98 1012.1
20260507012440 56 90 7.0 9.0 0.00 1.07 0.00 98 1012.2
20260507012340 56 90 7.0 7.0 0.00 1.07 0.00 98 1012.1
20260507012240 56 90 8.0 9.0 0.00 1.07 0.00 98 1012.1
20260507012039 56 90 9.0 11.0 0.00 1.07 0.00 98 1012.1
20260507011939 56 68 8.0 9.0 0.00 1.07 0.00 98 1012.2
20260507011740 56 68 8.0 9.0 0.00 1.07 0.00 97 1011.9
20260507011439 56 90 8.0 9.0 0.00 1.07 0.00 98 1012.1
20260507011339 56 90 9.0 11.0 0.00 1.07 0.00 97 1012.0
20260507011039 56 90 9.0 10.0 0.00 1.07 0.00 98 1012.1
20260507010839 56 90 7.0 7.0 0.00 1.07 0.00 98 1012.1
20260507010739 56 90 6.0 8.0 0.00 1.07 0.00 98 1012.1
20260507010539 56 90 7.0 9.0 0.00 1.07 0.00 98 1012.0
20260507010240 56 90 8.0 9.0 0.00 1.07 0.00 98 1012.1
20260507010139 56 90 7.0 9.0 0.00 1.07 0.00 98 1012.2
20260507010039 56 112 7.0 9.0 0.00 1.07 0.00 97 1012.1
20260507005539 56 90 8.0 9.0 0.00 1.07 0.00 97 1012.2
20260507005240 56 112 9.0 10.0 0.00 1.07 0.00 96 1012.3
20260507004640 56 135 9.0 10.0 0.00 1.07 0.00 97 1012.1
20260507004540 56 90 9.0 11.0 0.00 1.07 0.00 97 1012.2
20260507004139 56 90 8.0 9.0 0.00 1.07 0.00 97 1012.0
20260507004040 56 112 7.0 9.0 0.00 1.07 0.00 97 1012.4
20260507003940 56 135 7.0 10.0 0.00 1.07 0.00 97 1012.3
20260507003340 56 90 7.0 11.0 0.00 1.07 0.00 98 1012.4
20260507003040 56 90 9.0 11.0 0.00 1.07 0.00 97 1012.1
20260507002939 56 90 9.0 11.0 0.00 1.07 0.00 97 1012.3
20260507002540 56 112 9.0 11.0 0.00 1.07 0.00 97 1012.1
20260507002440 56 90 9.0 12.0 0.00 1.07 0.00 98 1012.2
20260507002340 56 90 8.0 9.0 0.00 1.07 0.00 98 1012.1
20260507002039 56 112 9.0 12.0 0.00 1.07 0.00 97 1012.3
20260507001840 57 90 9.0 11.0 0.00 1.07 0.00 97 1012.0
20260507001740 57 112 9.0 11.0 0.00 1.07 0.00 98 1012.2
20260507001640 56 90 9.0 11.0 0.00 1.07 0.00 98 1012.2
20260507001239 56 90 9.0 10.0 0.00 1.07 0.00 98 1012.2
20260507001139 57 90 11.0 14.0 0.00 1.07 0.00 97 1012.3
20260507000939 57 90 11.0 13.0 0.00 1.07 0.00 97 1012.0
20260507000840 57 90 10.0 12.0 0.00 1.07 0.00 97 1012.3
20260507000640 56 90 10.0 12.0 0.00 1.07 0.00 98 1012.0
20260507000539 56 90 10.0 12.0 0.00 1.07 0.00 98 1012.2
20260507000442 56 90 10.0 12.0 0.00 1.07 0.00 98 1012.0
20260507000340 56 90 10.0 12.0 0.00 1.07 0.00 98 1012.0
20260507000140 56 90 10.0 12.0 0.00 1.07 0.00 98 1012.1
20260506235940 56 90 10.0 12.0 0.00 1.07 0.00 98 1012.0
20260506235839 56 112 9.0 11.0 0.00 1.07 0.00 98 1011.9
20260506235739 56 90 10.0 12.0 0.00 1.07 0.00 98 1012.0
20260506235639 56 90 10.0 12.0 0.00 1.07 0.00 98 1012.0
20260506235539 56 90 10.0 11.0 0.00 1.07 0.00 98 1012.1
20260506235340 56 68 11.0 13.0 0.00 1.07 0.00 97 1012.1
20260506235239 57 90 9.0 12.0 0.00 1.07 0.00 98 1011.9
20260506235139 57 90 10.0 12.0 0.00 1.07 0.00 98 1012.0
20260506235039 56 90 9.0 10.0 0.00 1.07 0.00 97 1011.9
20260506234840 56 90 11.0 12.0 0.00 1.07 0.00 97 1012.1
20260506234740 56 90 9.0 10.0 0.00 1.07 0.00 97 1012.0
20260506234640 56 90 10.0 12.0 0.00 1.07 0.00 98 1012.0
20260506234440 56 90 9.0 10.0 0.00 1.07 0.00 97 1012.0
20260506234239 56 90 9.0 11.0 0.00 1.07 0.00 98 1011.9
20260506234040 56 90 9.0 10.0 0.00 1.07 0.00 97 1011.9
20260506233939 56 90 9.0 11.0 0.00 1.07 0.00 98 1011.8
20260506233740 56 90 9.0 10.0 0.00 1.07 0.00 98 1011.9
20260506233240 56 90 8.0 9.0 0.00 1.07 0.00 98 1012.0
20260506232940 56 90 10.0 11.0 0.00 1.07 0.00 98 1011.9
20260506232739 56 90 8.0 11.0 0.00 1.07 0.00 98 1011.9
20260506232539 56 90 9.0 10.0 0.00 1.07 0.00 97 1012.0
20260506232340 56 112 8.0 9.0 0.00 1.07 0.00 98 1012.2
20260506232239 56 112 9.0 10.0 0.00 1.07 0.00 97 1012.2
20260506231940 57 90 9.0 11.0 0.00 1.07 0.00 96 1012.2
20260506231740 57 90 9.0 11.0 0.00 1.07 0.00 97 1011.9
20260506231340 56 90 9.0 12.0 0.00 1.07 0.00 98 1012.0
20260506231239 56 90 9.0 11.0 0.00 1.07 0.00 97 1012.1
20260506231139 57 90 9.0 9.0 0.00 1.07 0.00 98 1012.2
20260506230740 57 90 10.0 14.0 0.00 1.07 0.00 97 1012.1
20260506230539 56 90 9.0 12.0 0.00 1.07 0.00 98 1011.9
20260506230439 56 112 8.0 11.0 0.00 1.07 0.00 97 1011.9
20260506230140 57 90 10.0 11.0 0.00 1.07 0.00 97 1011.9
20260506225939 56 90 9.0 11.0 0.00 1.07 0.00 98 1012.0
20260506225739 56 112 9.0 12.0 0.00 1.07 0.00 97 1011.9
20260506225544 57 112 9.0 10.0 0.00 1.07 0.00 97 1011.9
20260506225240 57 112 9.0 12.0 0.00 1.07 0.00 97 1012.2
20260506225039 57 90 9.0 12.0 0.00 1.07 0.00 96 1012.0
20260506224840 56 90 9.0 12.0 0.00 1.07 0.00 97 1012.2
20260506224539 56 90 9.0 11.0 0.00 1.07 0.00 98 1012.2
20260506224340 56 90 8.0 10.0 0.00 1.07 0.00 98 1012.1
20260506223740 56 90 7.0 9.0 0.00 1.07 0.00 98 1011.8
20260506223340 57 90 9.0 11.0 0.00 1.07 0.00 97 1011.9
20260506223140 56 90 9.0 11.0 0.00 1.07 0.00 97 1012.0
20260506223040 57 112 9.0 10.0 0.00 1.07 0.00 97 1012.0
20260506222939 56 90 9.0 9.0 0.00 1.08 0.00 97 1011.8
20260506222840 56 90 9.0 11.0 0.00 1.08 0.00 98 1012.1
20260506222639 56 90 8.0 9.0 0.00 1.08 0.00 97 1012.2
20260506222239 56 90 10.0 11.0 0.00 1.08 0.00 97 1012.2
20260506222139 56 90 9.0 11.0 0.00 1.08 0.00 98 1012.1
20260506221840 58 90 10.0 11.0 0.00 1.08 0.00 96 1012.0
20260506221740 58 90 10.0 11.0 0.00 1.08 0.00 96 1012.2
20260506221640 58 90 9.0 11.0 0.00 1.08 0.00 96 1012.1
20260506221539 58 68 10.0 11.0 0.00 1.08 0.00 95 1012.3
20260506221440 58 90 10.0 12.0 0.00 1.08 0.00 96 1012.2
20260506221239 58 68 10.0 12.0 0.00 1.08 0.00 96 1012.0
20260506221140 58 68 10.0 12.0 0.00 1.08 0.00 96 1012.0
20260506220940 58 68 11.0 12.0 0.00 1.08 0.00 96 1012.2
20260506220639 57 90 11.0 12.0 0.00 1.08 0.00 97 1012.1
20260506220439 57 90 11.0 12.0 0.00 1.08 0.00 96 1012.2
20260506220240 57 112 9.0 11.0 0.00 1.08 0.00 97 1012.1
20260506215939 57 90 11.0 14.0 0.00 1.08 1.08 97 1011.9
20260506215440 57 90 10.0 11.0 0.00 1.08 1.08 97 1012.1
20260506214839 57 90 10.0 12.0 0.00 1.08 1.08 96 1012.1
20260506214739 57 90 10.0 12.0 0.00 1.08 1.08 96 1012.1
20260506214640 57 90 11.0 14.0 0.00 1.08 1.08 95 1012.0
20260506214539 57 90 11.0 14.0 0.00 1.08 1.08 95 1012.1
20260506214439 57 112 11.0 14.0 0.00 1.08 1.08 96 1012.1
20260506214240 57 68 11.0 12.0 0.00 1.08 1.08 96 1012.0
20260506214039 57 90 11.0 14.0 0.00 1.08 1.08 97 1012.1
20260506213940 57 90 10.0 12.0 0.00 1.08 1.08 97 1011.9
20260506213840 57 90 10.0 12.0 0.00 1.08 1.08 97 1012.2
20260506213740 57 90 10.0 12.0 0.00 1.08 1.08 96 1012.0
20260506213640 57 90 10.0 11.0 0.00 1.08 1.08 97 1012.0
20260506213239 57 90 11.0 12.0 0.00 1.09 1.08 97 1012.1
20260506213140 57 90 10.0 12.0 0.00 1.09 1.08 97 1011.9
20260506212840 57 90 10.0 11.0 0.00 1.09 1.08 97 1012.0
20260506212740 57 90 9.0 11.0 0.00 1.09 1.08 98 1012.1
20260506212640 57 90 10.0 11.0 0.00 1.09 1.08 97 1012.0
20260506212239 57 90 10.0 12.0 0.00 1.09 1.08 97 1012.0
20260506212140 57 90 9.0 10.0 0.00 1.11 1.08 97 1011.9
20260506212040 57 90 8.0 10.0 0.00 1.11 1.08 98 1012.0
20260506211940 57 90 9.0 12.0 0.00 1.11 1.08 98 1012.0
20260506211839 57 90 9.0 9.0 0.00 1.11 1.08 99 1012.0
20260506211739 57 68 9.0 11.0 0.00 1.12 1.08 98 1012.2
20260506211640 57 90 9.0 11.0 0.00 1.12 1.08 98 1012.0
20260506211441 57 68 9.0 12.0 0.00 1.14 1.08 98 1012.1
20260506211340 57 90 9.0 10.0 0.00 1.15 1.08 98 1011.9
20260506211240 57 90 10.0 12.0 0.00 1.15 1.08 97 1012.0
20260506210739 58 90 9.0 11.0 0.00 1.15 1.08 98 1012.0
20260506210440 57 90 8.0 10.0 0.00 1.15 1.08 97 1012.0
20260506210340 57 90 9.0 12.0 0.00 1.15 1.08 97 1011.9
20260506210239 57 90 9.0 11.0 0.00 1.15 1.08 97 1011.7
20260506210139 57 90 9.0 11.0 0.00 1.15 1.08 97 1012.0
20260506210040 57 90 9.0 11.0 0.00 1.15 1.08 97 1011.9
20260506205940 57 112 10.0 13.0 0.00 1.15 1.08 97 1011.7
20260506205640 58 90 11.0 12.0 0.00 1.15 1.08 97 1011.9
20260506205440 58 90 10.0 12.0 0.00 1.16 1.08 97 1011.9
20260506205340 58 90 10.0 11.0 0.00 1.16 1.08 98 1011.8
20260506205239 58 90 10.0 12.0 0.00 1.16 1.08 98 1012.0
20260506204940 58 90 11.0 12.0 0.00 1.20 1.08 95 1011.9
20260506204839 58 90 11.0 12.0 0.00 1.20 1.08 96 1011.9
20260506204340 58 68 11.0 13.0 0.00 1.22 1.08 97 1012.0
20260506204140 58 90 11.0 12.0 0.00 1.22 1.08 98 1011.9
20260506204040 58 90 11.0 14.0 0.00 1.22 1.08 97 1011.8
20260506203840 58 112 9.0 11.0 0.00 1.22 1.08 98 1011.9
20260506203739 58 90 9.0 11.0 0.00 1.22 1.08 98 1011.8
20260506203539 58 90 9.0 12.0 0.00 1.22 1.08 98 1011.8
20260506203439 58 90 10.0 11.0 0.00 1.22 1.08 98 1011.4
20260506203240 58 90 11.0 13.0 0.00 1.22 1.08 98 1011.5
20260506203140 58 90 9.0 11.0 0.00 1.22 1.08 98 1011.8
20260506202640 57 90 11.0 13.0 0.00 1.22 1.08 99 1011.6
20260506202440 57 90 11.0 14.0 0.00 1.22 1.08 99 1011.6
20260506202340 57 90 10.0 13.0 0.00 1.22 1.08 99 1011.8
20260506202240 58 90 10.0 12.0 0.00 1.22 1.08 99 1011.6
20260506202139 58 90 11.0 13.0 0.00 1.22 1.08 98 1011.6
20260506201940 58 90 10.0 12.0 0.00 1.22 1.08 98 1011.7
20260506201739 58 90 11.0 14.0 0.00 1.22 1.08 98 1011.7
20260506201439 58 90 10.0 14.0 0.00 1.22 1.08 98 1011.5
20260506201340 58 90 10.0 11.0 0.00 1.22 1.08 98 1011.6
20260506201239 58 90 11.0 12.0 0.00 1.22 1.08 98 1011.5
20260506201139 58 90 12.0 16.0 0.00 1.22 1.08 97 1011.5
20260506200940 58 90 10.0 12.0 0.00 1.22 1.08 98 1011.5
20260506200640 58 90 10.0 12.0 0.00 1.22 1.08 98 1011.4
20260506200539 58 90 10.0 12.0 0.00 1.22 1.08 98 1011.5
20260506200440 57 90 10.0 11.0 0.00 1.22 1.08 98 1011.5
20260506200340 58 90 9.0 11.0 0.00 1.22 1.08 99 1011.4
20260506200140 57 90 11.0 12.0 0.00 1.22 1.08 98 1011.6
20260506195839 58 90 9.0 10.0 0.00 1.22 1.08 98 1011.2
20260506195640 58 90 9.0 10.0 0.00 1.22 1.08 98 1011.1
20260506195540 58 90 9.0 12.0 0.00 1.22 1.08 97 1011.2
20260506195340 58 90 10.0 12.0 0.00 1.22 1.08 96 1011.1
20260506194840 58 90 10.0 12.0 0.00 1.22 1.08 96 1011.0
20260506194339 58 90 11.0 11.0 0.00 1.22 1.08 97 1010.9
20260506193940 58 90 10.0 11.0 0.00 1.22 1.08 96 1011.2
20260506193839 58 68 10.0 12.0 0.00 1.22 1.08 97 1010.9
20260506193340 58 90 10.0 11.0 0.00 1.22 1.08 96 1010.9
20260506193240 58 90 9.0 12.0 0.00 1.22 1.08 96 1011.1
20260506192939 58 68 9.0 12.0 0.00 1.22 1.08 96 1011.0
20260506192840 58 68 9.0 12.0 0.00 1.22 1.08 96 1011.0
20260506192539 58 90 10.0 12.0 0.00 1.22 1.08 96 1011.1
20260506191940 58 90 11.0 12.0 0.00 1.22 1.08 97 1011.0
20260506191740 58 90 11.0 12.0 0.00 1.22 1.08 96 1010.9
20260506191340 58 90 11.0 13.0 0.00 1.22 1.08 96 1010.9
20260506191039 58 90 11.0 12.0 0.00 1.22 1.08 96 1010.8
20260506190939 58 68 11.0 13.0 0.00 1.22 1.08 96 1011.0
20260506190740 58 90 11.0 12.0 0.00 1.22 1.08 96 1010.8
20260506190640 58 90 11.0 14.0 0.00 1.22 1.08 96 1010.8
20260506190539 58 68 11.0 14.0 0.00 1.22 1.08 95 1010.7
20260506190339 58 68 11.0 13.0 0.00 1.22 1.08 96 1010.9
20260506190240 58 90 11.0 12.0 0.00 1.22 1.08 95 1010.7
20260506190139 58 90 11.0 13.0 0.00 1.22 1.08 95 1010.7
20260506185840 58 90 11.0 13.0 0.00 1.22 1.08 97 1010.7
20260506185640 57 90 9.0 10.0 0.00 1.22 1.08 98 1010.7
20260506185139 57 90 10.0 11.0 0.05 1.22 1.08 98 1010.6
20260506185040 57 90 11.0 12.0 0.07 1.22 1.08 98 1010.8
20260506184839 57 90 11.0 13.0 0.17 1.22 1.08 97 1010.4
20260506184739 57 90 10.0 12.0 0.18 1.22 1.08 98 1010.7
20260506184540 58 112 11.0 13.0 0.24 1.22 1.08 97 1010.4
20260506184440 58 90 11.0 12.0 0.27 1.22 1.08 98 1010.5
20260506184240 57 90 9.0 11.0 0.31 1.22 1.08 98 1010.4
20260506184139 57 90 9.0 11.0 0.35 1.22 1.08 97 1010.5
20260506184039 57 90 9.0 12.0 0.37 1.22 1.08 97 1010.4
20260506183540 57 90 11.0 13.0 0.51 1.22 1.08 98 1010.5
20260506183239 57 68 10.0 12.0 0.59 1.22 1.08 98 1010.5
20260506183039 57 68 9.0 11.0 0.61 1.22 1.08 99 1010.5
20260506182840 57 68 9.0 11.0 0.67 1.22 1.08 99 1010.5
20260506182439 56 90 11.0 12.0 0.67 1.22 1.08 99 1010.5
20260506182339 56 90 11.0 12.0 0.67 1.22 1.08 99 1010.5
20260506182239 56 68 10.0 11.0 0.67 1.22 1.08 99 1010.5
20260506181940 55 68 11.0 12.0 0.67 1.22 1.08 99 1010.6
20260506181840 55 90 10.0 12.0 0.67 1.22 1.08 99 1010.6
20260506181740 55 90 10.0 12.0 0.67 1.22 1.08 99 1010.6
20260506181639 55 90 10.0 12.0 0.67 1.22 1.08 99 1010.6
20260506181140 55 90 10.0 11.0 0.67 1.22 1.08 99 1010.4
20260506181039 55 68 11.0 12.0 0.67 1.22 1.08 99 1010.5
20260506180540 54 90 11.0 14.0 0.67 1.22 1.08 99 1010.3
20260506180240 54 90 9.0 11.0 0.67 1.22 1.08 99 1010.5
20260506180040 53 90 9.0 10.0 0.67 1.22 1.08 99 1010.7
20260506175739 53 68 5.0 6.0 0.67 1.22 1.08 99 1010.4
20260506175639 53 90 4.0 5.0 0.66 1.21 1.07 99 1010.1
20260506175139 54 112 5.0 7.0 0.60 1.15 1.01 99 1010.0
20260506174939 55 90 2.0 4.0 0.49 1.05 0.90 99 1009.7
20260506174239 54 45 8.0 14.0 0.31 0.87 0.73 99 1010.1
20260506174039 53 0 4.0 6.0 0.28 0.83 0.69 99 1010.0
20260506173939 53 22 3.0 4.0 0.25 0.81 0.67 99 1009.9
20260506173839 53 315 4.0 8.0 0.21 0.76 0.62 99 1009.5
20260506173639 52 270 6.0 9.0 0.15 0.70 0.56 99 1009.6
20260506173340 54 315 10.0 12.0 0.08 0.63 0.49 99 1009.0
20260506173139 54 292 9.0 12.0 0.05 0.61 0.47 99 1008.8
20260506172839 60 292 9.0 14.0 0.00 0.55 0.41 93 1008.7
20260506172525 62 270 7.0 11.0 0.00 0.55 0.41 90 1008.6
20260506172240 63 248 5.0 8.0 0.00 0.55 0.41 92 1008.4
20260506172140 63 292 3.0 4.0 0.00 0.55 0.41 93 1008.5
20260506171840 66 315 1.0 2.0 0.00 0.55 0.41 92 1008.3
20260506171640 66 90 2.0 3.0 0.00 0.55 0.41 91 1008.2
20260506171540 66 90 2.0 4.0 0.00 0.55 0.41 92 1008.4
20260506171339 65 45 0.0 1.0 0.00 0.55 0.41 93 1008.1
20260506171239 65 225 0.0 1.0 0.00 0.55 0.41 93 1008.2
20260506171040 65 135 3.0 6.0 0.00 0.55 0.41 92 1007.9
20260506170939 65 112 3.0 4.0 0.00 0.55 0.41 93 1007.9
20260506170840 65 112 2.0 4.0 0.00 0.55 0.41 94 1008.1
20260506170540 64 90 1.0 1.0 0.00 0.55 0.41 95 1007.9
20260506170440 63 135 1.0 2.0 0.00 0.55 0.41 95 1007.9
20260506170240 63 270 0.0 1.0 0.00 0.55 0.41 96 1008.1
20260506170140 63 292 0.0 1.0 0.00 0.55 0.41 96 1007.8
20260506165740 63 112 2.0 3.0 0.00 0.55 0.41 95 1008.0
20260506165539 62 90 0.0 1.0 0.00 0.55 0.41 96 1008.1
20260506165439 62 158 1.0 2.0 0.00 0.55 0.41 97 1007.9
20260506165139 62 90 4.0 6.0 0.00 0.55 0.41 96 1007.9
20260506164940 64 68 5.0 6.0 0.00 0.55 0.41 95 1007.5
20260506164840 63 68 6.0 7.0 0.00 0.55 0.41 96 1007.8
20260506164440 62 68 4.0 5.0 0.00 0.55 0.41 97 1007.8
20260506164240 62 68 6.0 7.0 0.00 0.55 0.41 97 1007.7
20260506164039 61 68 6.0 7.0 0.00 0.55 0.41 97 1007.7
20260506163839 61 68 7.0 7.0 0.00 0.55 0.41 97 1007.6
20260506163739 61 68 6.0 7.0 0.00 0.55 0.41 97 1007.6
20260506163540 61 90 7.0 8.0 0.00 0.55 0.41 97 1007.7
20260506163340 62 90 5.0 7.0 0.00 0.55 0.41 97 1007.5
20260506163039 61 90 7.0 9.0 0.00 0.55 0.41 97 1007.6
20260506162639 61 68 7.0 8.0 0.00 0.55 0.41 98 1007.5
20260506162539 61 90 7.0 8.0 0.00 0.55 0.41 97 1007.6
20260506162140 61 90 8.0 10.0 0.00 0.55 0.41 97 1007.6
20260506162040 61 90 8.0 10.0 0.00 0.55 0.41 97 1007.8
20260506161939 61 68 7.0 8.0 0.00 0.55 0.41 97 1007.9
20260506161840 61 68 8.0 9.0 0.00 0.55 0.41 97 1007.8
20260506161539 61 90 8.0 9.0 0.00 0.55 0.41 97 1007.8
20260506161340 61 68 8.0 9.0 0.00 0.55 0.41 97 1007.9
20260506161139 61 68 7.0 7.0 0.00 0.55 0.41 97 1007.9
20260506161039 61 68 6.0 7.0 0.00 0.55 0.41 97 1008.0
20260506160940 61 90 6.0 7.0 0.00 0.55 0.41 97 1007.8
20260506160640 61 90 7.0 8.0 0.00 0.55 0.41 97 1008.0
20260506160340 62 68 6.0 7.0 0.00 0.55 0.41 97 1008.0
20260506160139 61 68 4.0 6.0 0.00 0.55 0.41 97 1007.9
20260506155740 61 90 7.0 8.0 0.00 0.55 0.41 97 1007.9
20260506155540 61 68 6.0 7.0 0.00 0.55 0.41 98 1007.9
20260506155239 62 68 5.0 6.0 0.00 0.55 0.41 98 1007.9
20260506155139 61 68 6.0 7.0 0.00 0.55 0.41 97 1007.9
20260506154540 61 68 6.0 7.0 0.00 0.55 0.41 97 1007.9
20260506154440 61 68 6.0 7.0 0.00 0.55 0.41 97 1007.9
20260506153939 62 68 5.0 6.0 0.00 0.55 0.41 97 1008.1
20260506153839 62 68 5.0 6.0 0.00 0.55 0.41 97 1008.0
20260506153640 61 68 5.0 6.0 0.00 0.55 0.41 97 1007.8
20260506153540 61 90 5.0 7.0 0.00 0.55 0.41 97 1008.1
20260506152839 61 68 7.0 7.0 0.00 0.55 0.41 97 1008.0
20260506152639 61 68 7.0 8.0 0.00 0.55 0.41 97 1008.1
20260506152440 61 68 6.0 7.0 0.00 0.55 0.41 98 1008.0
20260506152240 61 68 5.0 5.0 0.00 0.55 0.41 97 1008.1
20260506152140 61 90 5.0 7.0 0.00 0.55 0.41 97 1008.1
20260506151739 61 68 7.0 8.0 0.00 0.55 0.41 97 1008.0
20260506151639 61 68 8.0 9.0 0.00 0.55 0.41 97 1008.0
20260506151540 61 68 6.0 7.0 0.00 0.55 0.41 97 1008.1
20260506151440 61 68 7.0 8.0 0.00 0.55 0.41 98 1008.1
20260506151339 61 68 5.0 7.0 0.00 0.55 0.41 98 1008.1
20260506151139 61 68 7.0 7.0 0.00 0.55 0.41 97 1008.3
20260506151039 61 68 8.0 9.0 0.00 0.55 0.41 97 1008.2
20260506150940 61 68 8.0 9.0 0.00 0.55 0.41 97 1008.2
20260506150640 61 68 7.0 8.0 0.00 0.55 0.41 98 1008.2
20260506150340 61 68 7.0 8.0 0.00 0.55 0.41 97 1008.3
20260506150139 61 68 7.0 8.0 0.00 0.55 0.41 97 1008.5
20260506145839 61 68 7.0 7.0 0.00 0.55 0.41 97 1008.3
20260506145639 61 68 6.0 8.0 0.00 0.55 0.41 98 1008.5
20260506145340 61 68 7.0 8.0 0.00 0.55 0.41 97 1008.5
20260506145139 61 68 7.0 8.0 0.00 0.55 0.41 98 1008.5
20260506145039 61 68 7.0 8.0 0.00 0.55 0.41 98 1008.5
20260506144840 61 90 7.0 8.0 0.00 0.55 0.41 97 1008.7
20260506144239 61 68 7.0 9.0 0.00 0.56 0.41 98 1008.4
20260506144139 61 68 8.0 9.0 0.00 0.56 0.41 98 1008.4
20260506144040 61 68 8.0 9.0 0.00 0.56 0.41 97 1008.6
20260506143840 61 90 8.0 9.0 0.00 0.56 0.41 98 1008.6
20260506143539 61 68 9.0 11.0 0.00 0.56 0.41 98 1008.7
20260506143340 61 90 7.0 9.0 0.00 0.57 0.41 98 1009.0
20260506143239 60 90 7.0 9.0 0.00 0.57 0.41 98 1008.7
20260506142540 60 68 7.0 8.0 0.00 0.57 0.41 99 1009.0
20260506142440 61 90 7.0 8.0 0.00 0.57 0.41 98 1008.8
20260506142341 60 68 8.0 9.0 0.00 0.57 0.41 98 1009.0
20260506142039 60 68 9.0 10.0 0.00 0.59 0.41 98 1009.0
20260506141939 60 90 8.0 9.0 0.00 0.59 0.41 98 1009.2
20260506141440 60 68 7.0 8.0 0.00 0.59 0.41 99 1009.1
20260506140640 60 68 7.0 9.0 0.00 0.59 0.41 98 1009.5
20260506140540 60 68 7.0 8.0 0.00 0.59 0.41 99 1009.4
20260506140140 60 68 8.0 9.0 0.00 0.59 0.41 98 1009.4
20260506135940 60 68 7.0 9.0 0.00 0.59 0.41 98 1009.3
20260506135839 60 68 8.0 9.0 0.00 0.59 0.41 98 1009.4
20260506135739 60 68 7.0 9.0 0.00 0.59 0.41 99 1009.5
20260506135539 60 68 7.0 8.0 0.00 0.59 0.41 98 1009.5
20260506135340 60 68 8.0 9.0 0.00 0.59 0.41 98 1009.2
20260506135239 60 68 8.0 9.0 0.00 0.59 0.41 98 1009.3
20260506135140 60 68 8.0 9.0 0.00 0.59 0.41 98 1009.5
20260506134939 60 68 7.0 8.0 0.00 0.59 0.41 98 1009.3
20260506134740 60 68 9.0 11.0 0.00 0.59 0.41 98 1009.5
20260506134640 60 68 7.0 9.0 0.00 0.59 0.41 99 1009.3
20260506134541 60 68 7.0 7.0 0.00 0.59 0.41 99 1009.2
20260506134339 60 68 8.0 9.0 0.00 0.59 0.41 98 1009.4
20260506134239 60 68 7.0 9.0 0.00 0.59 0.41 98 1009.5
20260506134039 60 68 9.0 10.0 0.00 0.59 0.41 98 1009.5
20260506133740 60 68 8.0 9.0 0.00 0.59 0.41 99 1009.4
20260506133640 60 68 7.0 9.0 0.00 0.59 0.41 99 1009.5
20260506133240 60 68 8.0 9.0 0.00 0.59 0.41 99 1009.9
20260506132539 60 68 7.0 7.0 0.00 0.59 0.41 99 1009.8
20260506132340 59 68 7.0 11.0 0.00 0.59 0.41 99 1009.7
20260506132240 59 68 9.0 10.0 0.00 0.59 0.41 99 1009.6
20260506132140 59 68 9.0 10.0 0.00 0.59 0.41 99 1009.6
20260506132040 60 68 8.0 9.0 0.00 0.59 0.41 99 1009.6
20260506131839 59 90 7.0 8.0 0.00 0.59 0.41 99 1009.6
20260506131639 60 90 8.0 10.0 0.00 0.59 0.41 99 1009.8
20260506130940 59 68 7.0 8.0 0.00 0.59 0.41 99 1009.6
20260506130739 59 68 7.0 8.0 0.00 0.59 0.41 99 1009.5
20260506130640 59 68 7.0 9.0 0.00 0.59 0.41 99 1009.7
20260506130339 59 90 7.0 8.0 0.00 0.59 0.41 99 1009.7
20260506125940 59 90 7.0 8.0 0.00 0.59 0.41 99 1009.8
20260506125840 59 68 7.0 7.0 0.00 0.59 0.41 99 1009.8
20260506125640 60 68 7.0 9.0 0.00 0.60 0.41 99 1009.7
20260506125540 59 68 7.0 9.0 0.00 0.60 0.41 99 1009.6
20260506125440 59 68 8.0 9.0 0.00 0.60 0.41 99 1009.8
20260506125339 59 68 8.0 9.0 0.00 0.60 0.41 99 1009.7
20260506125239 59 68 8.0 9.0 0.00 0.60 0.41 99 1009.7
20260506125139 59 68 9.0 9.0 0.00 0.60 0.41 99 1009.9
20260506124940 59 90 7.0 9.0 0.00 0.60 0.41 99 1009.7
20260506124640 59 68 7.0 8.0 0.00 0.60 0.41 99 1009.8
20260506124440 59 68 8.0 9.0 0.00 0.60 0.41 99 1009.9
20260506124240 58 68 7.0 9.0 0.00 0.60 0.41 99 1009.8
20260506123940 58 90 7.0 9.0 0.00 0.60 0.41 99 1010.0
20260506123840 58 90 8.0 9.0 0.00 0.60 0.41 99 1009.9
20260506123540 58 68 7.0 7.0 0.00 0.60 0.41 99 1010.0
20260506123440 58 68 8.0 9.0 0.00 0.60 0.41 99 1009.9
20260506123340 59 68 7.0 9.0 0.00 0.60 0.41 99 1009.8
20260506123140 58 68 8.0 9.0 0.00 0.60 0.41 99 1009.9
20260506122839 59 68 7.0 9.0 0.00 0.61 0.41 99 1009.8
20260506122739 58 90 8.0 9.0 0.00 0.61 0.41 99 1009.8
20260506122539 58 68 7.0 9.0 0.00 0.61 0.41 99 1009.8
20260506122439 58 90 8.0 9.0 0.00 0.61 0.41 99 1010.1
20260506122340 58 68 9.0 9.0 0.00 0.61 0.41 99 1010.1
20260506121740 57 68 8.0 9.0 0.00 0.61 0.41 99 1009.8
20260506121339 58 68 9.0 10.0 0.00 0.62 0.41 99 1010.0
20260506121239 58 68 8.0 9.0 0.00 0.62 0.41 99 1010.1
20260506121139 57 68 9.0 10.0 0.00 0.62 0.41 99 1010.2
20260506121040 58 68 9.0 10.0 0.00 0.62 0.41 99 1010.1
20260506120940 58 68 9.0 10.0 0.00 0.62 0.41 99 1010.1
20260506120840 58 68 8.0 9.0 0.00 0.62 0.41 99 1010.0
20260506120340 57 68 8.0 9.0 0.00 0.62 0.41 99 1010.3
20260506120240 57 68 8.0 9.0 0.00 0.62 0.41 99 1010.3
20260506120139 57 68 8.0 9.0 0.00 0.62 0.41 99 1010.3
20260506120040 57 68 8.0 9.0 0.00 0.62 0.41 99 1010.2
20260506115840 57 68 8.0 9.0 0.00 0.62 0.41 99 1010.3
20260506115739 57 68 8.0 9.0 0.00 0.62 0.41 99 1010.3
20260506115540 57 68 8.0 10.0 0.00 0.62 0.41 99 1010.2
20260506115339 58 68 9.0 11.0 0.00 0.63 0.41 99 1010.3
20260506115239 58 68 9.0 10.0 0.00 0.63 0.41 99 1010.2
20260506115139 58 68 8.0 10.0 0.00 0.63 0.41 99 1010.4
20260506115040 58 68 8.0 9.0 0.00 0.63 0.41 99 1010.2
20260506114839 58 68 9.0 10.0 0.00 0.63 0.41 99 1010.3
20260506114639 58 68 9.0 11.0 0.00 0.63 0.41 99 1010.2
20260506114440 58 68 8.0 9.0 0.00 0.63 0.41 99 1010.5
20260506114139 58 68 8.0 9.0 0.01 0.63 0.41 99 1010.3
20260506113440 57 90 7.0 9.0 0.03 0.63 0.41 99 1010.4
20260506113340 58 68 8.0 9.0 0.03 0.63 0.41 99 1010.3
20260506113240 57 68 7.0 9.0 0.03 0.64 0.41 99 1010.5
20260506113140 57 90 7.0 8.0 0.04 0.64 0.41 99 1010.5
20260506112941 58 90 7.0 7.0 0.05 0.64 0.41 99 1010.4
20260506112739 57 68 8.0 9.0 0.05 0.64 0.41 99 1010.4
20260506112339 57 68 7.0 9.0 0.05 0.64 0.41 99 1010.5
20260506112240 57 68 7.0 8.0 0.05 0.64 0.41 99 1010.4
20260506112139 57 68 8.0 9.0 0.05 0.64 0.41 99 1010.4
20260506111940 57 68 7.0 9.0 0.05 0.64 0.41 99 1010.2